[[{"header":{"parameterUnit":"m.s-1","parameterCategory":1,"la1":30.2992,"la2":30.254,"lo1":-89.0895,"lo2":-89.0443,"dy":0.0025,"dx":0.0025,"nx":19,"ny":19,"refTime":"2026-05-24T21:00:00:Z","depth":0,"parameterNumber":2,"parameterNumberName":"U-component_of_WINDS"},"data":[0,0,0,2.8417,2.8417,2.8395,2.8395,2.8382,2.8382,0,0,0,0,0,0,0,0,0,0,0,2.8433,2.8433,2.8417,2.8417,2.8395,2.8395,2.8382,2.8382,0,0,0,0,0,0,0,0,0,0,0,2.8433,2.8433,2.8434,2.8417,2.8395,2.8395,2.8382,2.8393,0,0,0,0,0,0,0,0,0,0,2.8412,2.8436,2.8433,2.8434,2.8417,2.8395,2.8395,2.8393,2.8392,2.8398,0,2.8407,0,2.8394,2.8382,2.8382,0,0,0,2.841,2.8437,2.8422,2.8434,2.8417,2.8395,2.8403,2.8392,2.8391,2.8397,2.8406,2.8405,2.8394,2.8382,2.8382,2.844,2.8441,0,0,2.8411,2.8434,2.8423,2.8422,2.8427,2.8404,2.8402,2.8392,2.8403,2.8406,2.8405,2.8394,2.8382,2.8382,2.844,2.844,0,0,0,2.8419,2.8436,2.8421,2.8423,2.8418,2.8403,2.8402,2.8403,2.8397,2.8405,2.8394,2.8382,2.8382,2.8439,2.844,2.8491,0,0,0,2.842,2.844,2.8422,2.8436,2.8418,2.8411,2.8414,2.8397,2.8395,2.8394,2.8382,2.8382,2.8438,2.844,2.8488,2.8511,0,0,0,2.8431,2.8442,2.8442,2.8437,2.8429,2.841,2.8403,2.8396,2.8389,2.8382,2.8382,2.8438,2.8439,2.8486,2.8507,2.8532,0,0,0,2.8451,2.8489,2.8443,2.8482,2.8429,2.8443,2.8402,2.8411,2.8412,2.8382,2.8438,2.844,2.8485,2.8504,2.8529,2.8555,2.8569,0,0,2.8512,2.8498,2.8518,2.8476,2.8504,2.8444,2.8479,2.8457,2.8436,2.844,2.8441,2.8489,2.8507,2.8531,2.8641,2.8652,0,0,0,2.8546,2.856,2.8563,2.8564,2.8548,2.8535,2.8505,2.8497,2.8499,2.8443,2.8505,2.8515,2.8528,2.854,2.8549,2.8558,2.8447,2.8447,2.8446,2.8666,2.8635,2.8666,2.8633,2.8634,2.8602,2.86,2.8583,2.8553,2.8568,2.8569,2.8639,2.8654,2.866,2.867,2.8582,2.8582,2.8582,2.8582,2.8751,2.8766,2.8724,2.8739,2.8706,2.8719,2.8689,2.8667,2.8673,2.8637,2.8647,2.8609,2.8674,2.868,2.8586,2.8585,2.8585,2.8585,2.8584,2.8824,2.8826,2.8815,2.8812,2.8813,2.8778,2.8785,2.8755,2.8728,2.8738,2.8734,2.8733,2.8726,2.8738,2.8739,2.8739,2.8739,2.8739,2.8739,2.8904,2.889,2.8899,2.8885,2.888,2.8871,2.8839,2.8834,2.882,2.8798,2.8798,2.8764,2.8687,2.8666,2.8743,2.8742,2.8742,2.8742,2.8741,2.8998,2.8971,2.8986,2.8982,2.8961,2.8963,2.8926,2.8917,2.8909,2.8913,2.8878,2.8825,2.8808,2.88,2.8783,2.8885,2.8885,2.8885,2.8885,2.9058,2.9046,2.9053,2.9048,2.904,2.9007,2.9023,2.8998,2.8969,2.8961,2.8942,2.8918,2.8912,2.8898,2.8888,2.8871,2.8994,2.8994,2.8994,2.9112,2.9099,2.9118,2.9089,2.907,2.9055,2.9068,2.9063,2.9024,2.8998,2.8954,2.8949,2.8909,2.8899,2.8869,2.8855,2.8823,0,0]},{"header":{"parameterUnit":"m.s-1","parameterCategory":1,"la1":30.2992,"la2":30.254,"lo1":-89.0895,"lo2":-89.0443,"dy":0.0025,"dx":0.0025,"nx":19,"ny":19,"refTime":"2026-05-24T21:00:00:Z","depth":0,"parameterNumber":3,"parameterNumberName":"V-component_of_WINDS"},"data":[0,0,0,0.3114,0.3115,0.3145,0.3146,0.3176,0.3176,0,0,0,0,0,0,0,0,0,0,0,0.3099,0.3099,0.3114,0.3115,0.3145,0.3146,0.3176,0.3176,0,0,0,0,0,0,0,0,0,0,0,0.3099,0.3099,0.31,0.3115,0.3145,0.3146,0.3176,0.3156,0,0,0,0,0,0,0,0,0,0,0.3127,0.3109,0.3099,0.31,0.3115,0.3145,0.3146,0.3155,0.3157,0.3158,0,0.3158,0,0.3167,0.3177,0.3177,0,0,0,0.3119,0.3107,0.312,0.31,0.3115,0.3145,0.3133,0.3156,0.3158,0.3161,0.3158,0.3159,0.3168,0.3178,0.3178,0.317,0.3169,0,0,0.3117,0.3102,0.3118,0.3121,0.3116,0.3132,0.3134,0.3158,0.3154,0.3158,0.316,0.3168,0.3178,0.3178,0.317,0.317,0,0,0,0.3109,0.3101,0.3114,0.312,0.3126,0.3132,0.3135,0.3153,0.3158,0.3161,0.3168,0.3178,0.3178,0.317,0.317,0.3144,0,0,0,0.3108,0.3096,0.3113,0.3104,0.3125,0.314,0.3129,0.3157,0.316,0.3168,0.3178,0.3178,0.3171,0.317,0.3145,0.3134,0,0,0,0.3099,0.3095,0.3098,0.3103,0.3116,0.314,0.3147,0.3158,0.3164,0.3178,0.3178,0.3171,0.317,0.3146,0.3136,0.3127,0,0,0,0.3085,0.3075,0.3097,0.3089,0.3115,0.3124,0.3147,0.3154,0.3162,0.3178,0.317,0.317,0.3147,0.3137,0.3128,0.3116,0.311,0,0,0.3064,0.3072,0.3068,0.3089,0.3089,0.312,0.3117,0.3139,0.3153,0.3163,0.3163,0.3145,0.3136,0.3127,0.3082,0.3077,0,0,0,0.3056,0.3053,0.3056,0.3063,0.308,0.3092,0.3116,0.3124,0.3133,0.3156,0.314,0.3135,0.313,0.3125,0.3121,0.3118,0.3167,0.3167,0.3167,0.3004,0.3024,0.3018,0.3041,0.3048,0.3072,0.3079,0.3094,0.3112,0.3107,0.311,0.3081,0.3074,0.3071,0.3067,0.3106,0.3106,0.3106,0.3106,0.2974,0.2972,0.2996,0.2999,0.302,0.3022,0.3045,0.3058,0.3063,0.308,0.3077,0.3094,0.3065,0.3063,0.3104,0.3105,0.3105,0.3105,0.3105,0.2942,0.2944,0.2954,0.2966,0.2972,0.2996,0.3,0.3019,0.3036,0.3033,0.3038,0.3038,0.304,0.3034,0.3034,0.3034,0.3034,0.3034,0.3034,0.2904,0.2916,0.2917,0.2933,0.2939,0.295,0.2974,0.2981,0.2994,0.3007,0.3007,0.3025,0.3059,0.3067,0.3032,0.3033,0.3033,0.3033,0.3033,0.2865,0.2876,0.2878,0.2884,0.2904,0.2909,0.2933,0.2946,0.2954,0.2955,0.2974,0.2996,0.3006,0.3009,0.3015,0.297,0.297,0.297,0.297,0.2837,0.2843,0.2848,0.2858,0.2869,0.289,0.289,0.2909,0.293,0.2936,0.2946,0.2956,0.2959,0.2966,0.2971,0.2977,0.2923,0.2923,0.2923,0.2813,0.2822,0.2818,0.2839,0.2856,0.2869,0.287,0.2879,0.2906,0.2921,0.2941,0.2943,0.296,0.2965,0.2981,0.2987,0.2999,0,0]}]]